Time,TemperatureF,DewpointF,PressureIn,WindDirection,WindDirectionDegrees,WindSpeedMPH,WindSpeedGustMPH,Humidity,HourlyPrecipIn,Conditions,Clouds,dailyrainin,SoftwareType,DateUTC
2013-08-16 00:12:00,72.5,71.3,29.89,SW,225,0.0,-999.0,96,-99.99,,,0.00,Acu-Link.com,2013-08-16 05:12:00,
2013-08-16 00:28:00,72.1,70.9,29.89,SSE,157,0.0,-999.0,96,-99.99,,,0.00,Acu-Link.com,2013-08-16 05:28:00,
2013-08-16 00:43:00,72.0,70.8,29.88,SSE,157,0.0,-999.0,96,-99.99,,,0.00,Acu-Link.com,2013-08-16 05:43:00,
2013-08-16 00:59:00,71.4,70.2,29.89,SSE,157,0.0,-999.0,96,-99.99,,,0.00,Acu-Link.com,2013-08-16 05:59:00,
2013-08-16 01:14:00,71.6,70.7,29.88,SSE,157,0.0,-999.0,97,-99.99,,,0.00,Acu-Link.com,2013-08-16 06:14:00,
2013-08-16 01:29:00,71.2,70.3,29.89,SSE,157,0.0,-999.0,97,-99.99,,,0.00,Acu-Link.com,2013-08-16 06:29:00,
2013-08-16 01:58:00,71.4,70.8,29.88,SSE,157,0.0,-999.0,98,-99.99,,,0.00,Acu-Link.com,2013-08-16 06:58:00,
2013-08-16 02:13:00,71.1,70.5,29.88,SSE,157,0.0,-999.0,98,-99.99,,,0.00,Acu-Link.com,2013-08-16 07:13:00,
2013-08-16 02:29:00,70.9,70.3,29.88,SSE,157,0.0,-999.0,98,-99.99,,,0.00,Acu-Link.com,2013-08-16 07:29:00,
2013-08-16 02:44:00,70.9,70.3,29.87,SSE,157,0.0,-999.0,98,-99.99,,,0.00,Acu-Link.com,2013-08-16 07:44:00,
2013-08-16 03:00:00,70.7,70.1,29.88,SSE,157,0.0,-999.0,98,-99.99,,,0.00,Acu-Link.com,2013-08-16 08:00:00,
2013-08-16 03:15:00,70.7,70.1,29.87,SSE,157,0.0,-999.0,98,-99.99,,,0.00,Acu-Link.com,2013-08-16 08:15:00,
2013-08-16 03:30:00,70.7,70.1,29.86,SSE,157,0.0,-999.0,98,-99.99,,,0.00,Acu-Link.com,2013-08-16 08:30:00,
2013-08-16 03:46:00,70.5,70.2,29.87,SSE,157,0.0,-999.0,99,-99.99,,,0.00,Acu-Link.com,2013-08-16 08:46:00,
2013-08-16 04:01:00,70.7,70.4,29.87,SE,135,1.7,-999.0,99,-99.99,,,0.00,Acu-Link.com,2013-08-16 09:01:00,
2013-08-16 04:16:00,70.5,70.2,29.86,SE,135,0.0,-999.0,99,-99.99,,,0.00,Acu-Link.com,2013-08-16 09:16:00,
2013-08-16 04:31:00,70.5,70.2,29.86,SSE,157,0.0,-999.0,99,-99.99,,,0.00,Acu-Link.com,2013-08-16 09:31:00,
2013-08-16 04:46:00,70.2,69.9,29.86,SSE,157,0.0,-999.0,99,-99.99,,,0.00,Acu-Link.com,2013-08-16 09:46:00,
2013-08-16 05:02:00,70.3,70.0,29.85,SSE,157,0.0,-999.0,99,-99.99,,,0.00,Acu-Link.com,2013-08-16 10:02:00,
2013-08-16 05:17:00,70.3,70.0,29.86,SSE,157,0.0,-999.0,99,-99.99,,,0.00,Acu-Link.com,2013-08-16 10:17:00,
2013-08-16 05:32:00,70.3,70.0,29.87,SSE,157,1.7,-999.0,99,-99.99,,,0.00,Acu-Link.com,2013-08-16 10:32:00,
2013-08-16 05:48:00,70.3,70.0,29.87,ESE,112,1.7,-999.0,99,-99.99,,,0.00,Acu-Link.com,2013-08-16 10:48:00,
2013-08-16 06:03:00,70.3,70.0,29.89,NE,45,3.2,-999.0,99,-99.99,,,0.00,Acu-Link.com,2013-08-16 11:03:00,
2013-08-16 06:19:00,70.3,70.0,29.89,NNE,22,0.0,-999.0,99,-99.99,,,0.00,Acu-Link.com,2013-08-16 11:19:00,
2013-08-16 06:34:00,70.3,70.0,29.90,NE,45,2.2,-999.0,99,-99.99,,,0.00,Acu-Link.com,2013-08-16 11:34:00,
2013-08-16 06:49:00,70.9,70.6,29.91,East,90,1.7,-999.0,99,-99.99,,,0.00,Acu-Link.com,2013-08-16 11:49:00,
2013-08-16 07:05:00,71.4,71.1,29.91,NE,45,3.7,-999.0,99,-99.99,,,0.00,Acu-Link.com,2013-08-16 12:05:00,
2013-08-16 07:20:00,71.8,71.5,29.95,North,0,7.3,-999.0,99,-99.99,,,0.00,Acu-Link.com,2013-08-16 12:20:00,
2013-08-16 07:36:00,68.5,64.8,29.99,NE,45,11.4,-999.0,88,-99.99,,,0.01,Acu-Link.com,2013-08-16 12:36:00,
2013-08-16 07:51:00,67.3,63.3,29.99,NNE,22,9.9,-999.0,87,-99.99,,,0.01,Acu-Link.com,2013-08-16 12:51:00,
2013-08-16 08:06:00,66.7,63.4,29.99,NE,45,9.9,-999.0,89,-99.99,,,0.01,Acu-Link.com,2013-08-16 13:06:00,
2013-08-16 08:21:00,66.4,63.7,29.98,NE,45,9.4,-999.0,91,-99.99,,,0.02,Acu-Link.com,2013-08-16 13:21:00,
2013-08-16 08:36:00,67.5,64.1,29.98,NE,45,12.5,-999.0,89,-99.99,,,0.02,Acu-Link.com,2013-08-16 13:36:00,
2013-08-16 08:51:00,67.6,63.9,29.97,North,0,11.4,-999.0,88,-99.99,,,0.02,Acu-Link.com,2013-08-16 13:51:00,
2013-08-16 09:06:00,67.8,64.4,29.97,NE,45,4.7,-999.0,89,-99.99,,,0.02,Acu-Link.com,2013-08-16 14:06:00,
2013-08-16 09:21:00,68.7,64.7,29.97,NE,45,9.9,-999.0,87,-99.99,,,0.02,Acu-Link.com,2013-08-16 14:21:00,
2013-08-16 09:37:00,69.8,65.4,29.98,East,90,6.8,-999.0,86,-99.99,,,0.02,Acu-Link.com,2013-08-16 14:37:00,
2013-08-16 09:52:00,70.2,65.5,29.96,East,90,3.7,-999.0,85,-99.99,,,0.02,Acu-Link.com,2013-08-16 14:52:00,
2013-08-16 10:07:00,72.1,65.6,29.96,ENE,67,4.2,-999.0,80,-99.99,,,0.02,Acu-Link.com,2013-08-16 15:07:00,
2013-08-16 10:22:00,75.2,65.5,29.95,ESE,112,5.8,-999.0,72,-99.99,,,0.02,Acu-Link.com,2013-08-16 15:22:00,
2013-08-16 10:37:00,76.8,65.0,29.95,SSW,202,1.7,-999.0,67,-99.99,,,0.02,Acu-Link.com,2013-08-16 15:37:00,
2013-08-16 10:53:00,77.5,64.8,29.96,SSW,202,0.0,-999.0,65,-99.99,,,0.02,Acu-Link.com,2013-08-16 15:53:00,
2013-08-16 11:09:00,77.4,64.7,29.97,West,270,5.3,-999.0,65,-99.99,,,0.02,Acu-Link.com,2013-08-16 16:09:00,
2013-08-16 11:24:00,75.2,64.3,29.97,SSW,202,5.3,-999.0,69,-99.99,,,0.02,Acu-Link.com,2013-08-16 16:24:00,
2013-08-16 11:39:00,73.8,64.6,29.98,SW,225,10.4,-999.0,73,-99.99,,,0.02,Acu-Link.com,2013-08-16 16:39:00,
2013-08-16 11:55:00,73.0,63.4,29.96,NW,315,9.4,-999.0,72,-99.99,,,0.02,Acu-Link.com,2013-08-16 16:55:00,
2013-08-16 12:10:00,72.7,63.9,29.90,SW,225,9.4,-999.0,74,-99.99,,,0.02,Acu-Link.com,2013-08-16 17:10:00,
2013-08-16 12:25:00,71.8,63.4,29.87,SW,225,9.9,-999.0,75,-99.99,,,0.02,Acu-Link.com,2013-08-16 17:25:00,
2013-08-16 12:40:00,72.0,63.6,29.84,WSW,247,8.9,-999.0,75,-99.99,,,0.02,Acu-Link.com,2013-08-16 17:40:00,
2013-08-16 12:55:00,73.9,63.5,29.84,SSW,202,1.7,-999.0,70,-99.99,,,0.02,Acu-Link.com,2013-08-16 17:55:00,
2013-08-16 13:10:00,74.7,63.8,29.87,ENE,67,2.7,-999.0,69,-99.99,,,0.02,Acu-Link.com,2013-08-16 18:10:00,
2013-08-16 13:26:00,76.1,63.5,29.87,NNE,22,4.2,-999.0,65,-99.99,,,0.02,Acu-Link.com,2013-08-16 18:26:00,
2013-08-16 13:41:00,79.0,64.4,29.87,NE,45,5.3,-999.0,61,-99.99,,,0.02,Acu-Link.com,2013-08-16 18:41:00,
2013-08-16 13:57:00,80.2,64.1,29.87,NE,45,5.3,-999.0,58,-99.99,,,0.02,Acu-Link.com,2013-08-16 18:57:00,
2013-08-16 14:12:00,82.0,64.7,29.86,NNW,337,7.8,-999.0,56,-99.99,,,0.02,Acu-Link.com,2013-08-16 19:12:00,
2013-08-16 14:28:00,83.5,64.5,29.85,North,0,4.7,-999.0,53,-99.99,,,0.02,Acu-Link.com,2013-08-16 19:28:00,
2013-08-16 14:43:00,85.8,64.4,29.85,NE,45,7.3,-999.0,49,-99.99,,,0.02,Acu-Link.com,2013-08-16 19:43:00,
2013-08-16 14:58:00,86.4,63.1,29.85,NW,315,6.3,-999.0,46,-99.99,,,0.02,Acu-Link.com,2013-08-16 19:58:00,
2013-08-16 15:13:00,88.7,62.6,29.83,NNE,22,8.3,-999.0,42,-99.99,,,0.02,Acu-Link.com,2013-08-16 20:13:00,
2013-08-16 15:28:00,88.3,63.6,29.84,NE,45,8.3,-999.0,44,-99.99,,,0.02,Acu-Link.com,2013-08-16 20:28:00,
2013-08-16 15:43:00,89.8,64.3,29.84,NW,315,5.8,-999.0,43,-99.99,,,0.02,Acu-Link.com,2013-08-16 20:43:00,
2013-08-16 15:59:00,89.2,65.7,29.84,ENE,67,5.3,-999.0,46,-99.99,,,0.02,Acu-Link.com,2013-08-16 20:59:00,
2013-08-16 16:14:00,90.0,65.1,29.83,NNE,22,8.9,-999.0,44,-99.99,,,0.02,Acu-Link.com,2013-08-16 21:14:00,
2013-08-16 16:31:00,90.0,65.1,29.83,NNE,22,8.3,-999.0,44,-99.99,,,0.02,Acu-Link.com,2013-08-16 21:31:00,
2013-08-16 16:48:00,90.0,65.1,29.84,NE,45,4.7,-999.0,44,-99.99,,,0.02,Acu-Link.com,2013-08-16 21:48:00,
2013-08-16 17:03:00,90.1,64.5,29.84,NE,45,4.7,-999.0,43,-99.99,,,0.02,Acu-Link.com,2013-08-16 22:03:00,
2013-08-16 17:19:00,90.0,64.5,29.84,East,90,6.3,-999.0,43,-99.99,,,0.02,Acu-Link.com,2013-08-16 22:19:00,
2013-08-16 17:34:00,90.5,64.2,29.85,ENE,67,7.8,-999.0,42,-99.99,,,0.02,Acu-Link.com,2013-08-16 22:34:00,
2013-08-16 17:50:00,89.6,62.7,29.84,East,90,3.2,-999.0,41,-99.99,,,0.02,Acu-Link.com,2013-08-16 22:50:00,
2013-08-16 18:05:00,89.1,63.6,29.84,NE,45,6.8,-999.0,43,-99.99,,,0.02,Acu-Link.com,2013-08-16 23:05:00,
2013-08-16 18:20:00,89.6,64.1,29.84,ESE,112,4.7,-999.0,43,-99.99,,,0.02,Acu-Link.com,2013-08-16 23:20:00,
2013-08-16 18:35:00,90.0,65.1,29.84,NNE,22,3.2,-999.0,44,-99.99,,,0.02,Acu-Link.com,2013-08-16 23:35:00,
2013-08-16 18:50:00,88.5,65.0,29.84,ENE,67,4.2,-999.0,46,-99.99,,,0.02,Acu-Link.com,2013-08-16 23:50:00,
2013-08-16 19:05:00,87.1,63.8,29.86,NE,45,5.3,-999.0,46,-99.99,,,0.02,Acu-Link.com,2013-08-17 00:05:00,
2013-08-16 19:20:00,86.4,63.1,29.85,NE,45,3.7,-999.0,46,-99.99,,,0.02,Acu-Link.com,2013-08-17 00:20:00,
2013-08-16 19:35:00,85.6,64.2,29.85,SSW,202,2.7,-999.0,49,-99.99,,,0.02,Acu-Link.com,2013-08-17 00:35:00,
2013-08-16 19:51:00,83.8,64.3,29.85,ENE,67,3.2,-999.0,52,-99.99,,,0.02,Acu-Link.com,2013-08-17 00:51:00,
2013-08-16 20:06:00,82.4,64.1,29.86,ENE,67,3.2,-999.0,54,-99.99,,,0.02,Acu-Link.com,2013-08-17 01:06:00,
2013-08-16 20:21:00,81.1,63.4,29.86,NE,45,4.7,-999.0,55,-99.99,,,0.02,Acu-Link.com,2013-08-17 01:21:00,
2013-08-16 20:36:00,80.2,63.1,29.87,East,90,2.2,-999.0,56,-99.99,,,0.02,Acu-Link.com,2013-08-17 01:36:00,
2013-08-16 20:52:00,79.0,63.4,29.87,NE,45,0.0,-999.0,59,-99.99,,,0.02,Acu-Link.com,2013-08-17 01:52:00,
2013-08-16 21:08:00,77.7,63.6,29.88,NE,45,0.0,-999.0,62,-99.99,,,0.02,Acu-Link.com,2013-08-17 02:08:00,
2013-08-16 21:23:00,77.2,63.6,29.89,NE,45,0.0,-999.0,63,-99.99,,,0.02,Acu-Link.com,2013-08-17 02:23:00,
2013-08-16 21:38:00,76.3,63.2,29.89,NE,45,1.7,-999.0,64,-99.99,,,0.02,Acu-Link.com,2013-08-17 02:38:00,
2013-08-16 21:54:00,75.9,63.7,29.90,ENE,67,0.0,-999.0,66,-99.99,,,0.02,Acu-Link.com,2013-08-17 02:54:00,
2013-08-16 22:09:00,74.7,63.4,29.90,NE,45,0.0,-999.0,68,-99.99,,,0.02,Acu-Link.com,2013-08-17 03:09:00,
2013-08-16 22:24:00,74.3,63.9,29.91,North,0,0.0,-999.0,70,-99.99,,,0.02,Acu-Link.com,2013-08-17 03:24:00,
2013-08-16 22:40:00,73.4,63.4,29.92,NE,45,1.7,-999.0,71,-99.99,,,0.02,Acu-Link.com,2013-08-17 03:40:00,
2013-08-16 22:56:00,73.0,63.4,29.93,NE,45,2.2,-999.0,72,-99.99,,,0.02,Acu-Link.com,2013-08-17 03:56:00,
2013-08-16 23:11:00,73.0,63.8,29.93,NE,45,0.0,-999.0,73,-99.99,,,0.02,Acu-Link.com,2013-08-17 04:11:00,
2013-08-16 23:26:00,72.0,63.6,29.93,East,90,0.0,-999.0,75,-99.99,,,0.02,Acu-Link.com,2013-08-17 04:26:00,
2013-08-16 23:42:00,71.1,64.2,29.93,East,90,0.0,-999.0,79,-99.99,,,0.02,Acu-Link.com,2013-08-17 04:42:00,
2013-08-16 23:57:00,70.2,64.1,29.94,East,90,0.0,-999.0,81,-99.99,,,0.02,Acu-Link.com,2013-08-17 04:57:00,